Current weather by "City, St" or "zip code"  
 

Current Conditions: Meacham, OR

Fair


43.0 F

Last Updated on Oct 29 2020, 6:56 pm PDT
Humidity: 63%
Wind Speed: N 0.0 mph
Barometer 30.10 in
Dewpoint: 30.9 F
Visibility: 10.00 mi
Precip: --
Heat Index: NA
Wind Chill: NA
Current conditions at:

Meacham, OR (KMEH)

Lat: 45.51176 Lon: 118.42466

Local Radar Image active severe weather and emergency alerts image image weather storm and storm spotter reports image weather observation monitoring service image
Local
Radar
Active
Alerts
Storm Reports Obs
Monitoring

Sign-up For Email & Text Message Weather Alert Notification Services



Advertise Here

Observation History for Meacham, OR


Time Wind
(mph)
Vis
(mi)
Weather Precip (in) Temperature (F) Relative
Humidity
Wind
Chill
(F)
Heat
Index
(F)
Pressure
Air Dwpt altimeter
(in)
sea level
(mb)
Rmks
6:56 pm PDT N 0.0 10.00 Fair -- 43.0 30.9 63% NA NA 30.10 1021.4
5:56 pm PDT N 0.0 10.00 Fair -- 50.0 34.0 54% NA NA 30.10 1020.8
4:56 pm PDT N 0.0 10.00 Fair -- 59.0 30.0 33% NA NA 30.11 1020.2
3:56 pm PDT N 0.0 10.00 Fair -- 65.0 28.9 26% NA NA 30.11 1020.0
2:56 pm PDT N 0.0 10.00 Fair -- 68.0 26.1 21% NA NA 30.12 1019.9
1:56 pm PDT 3.5 10.00 Fair -- 68.0 26.1 21% NA NA 30.14 1020.6
12:56 pm PDT 10.00 Fair -- 67.0 25.0 20% NA NA 30.15 1021.2
11:56 am PDT N 0.0 NULL Fair -- 64.0 23.0 21% NA NA 30.17 1021.8
10:56 am PDT N 0.0 10.00 A Few Clouds -- NULL % NA NA 30.18 M
9:56 am PDT N 0.0 10.00 Fair -- 39.0 32.0 76% NA NA 30.19 1024.4
8:56 am PDT N 0.0 10.00 Fair -- 29.0 24.1 82% NA NA 30.20 1025.2
7:56 am PDT N 0.0 10.00 Fair -- 26.0 21.0 81% NA NA 30.19 1024.8
6:56 am PDT N 0.0 10.00 Fair -- 26.0 21.0 81% NA NA 30.19 1024.4
5:56 am PDT N 0.0 10.00 Fair -- 27.0 21.9 81% NA NA 30.18 1023.8
4:56 am PDT N 0.0 10.00 Fair -- 28.0 23.0 81% NA NA 30.19 1023.2
3:56 am PDT N 0.0 10.00 Fair -- 28.0 24.1 85% NA NA 30.19 1023.0
2:56 am PDT N 0.0 10.00 Fair -- 29.0 24.1 82% NA NA 30.19 1023.0
1:56 am PDT N 0.0 10.00 Fair -- 29.0 25.0 85% NA NA 30.20 1022.8
12:56 am PDT N 0.0 10.00 Fair -- 29.0 25.0 85% NA NA 30.20 1022.9
10:56 pm PDT N 0.0 10.00 Fair -- 30.0 26.1 85% NA NA 30.21 1024.2
9:56 pm PDT N 0.0 10.00 Fair -- 32.0 27.0 82% NA NA 30.20 1024.7
8:56 pm PDT N 0.0 10.00 Fair -- 34.0 28.9 82% NA NA 30.20 1025.1
7:56 pm PDT N 0.0 10.00 Fair -- 37.0 32.0 82% NA NA 30.20 1025.3

Regional Weather Observation


Meacham, OR (KMEH)

Fair
43.0 F

La Grande/Union County Airport, OR (KLGD)

Fair
59.0 F

Hermiston, Hermiston Municipal Airport, OR (KHRI)

Fair
61.0 F

Walla Walla Regional Airport, WA (KALW)

Fair
55.0 F

Tri-Cities Airport, WA (KPSC)

Fair
49.0 F

Hanford, WA (KHMS)

Partly Cloudy
61.0 F